Vorticity
5 5 5 3 9 9 5 4 25 18 14 13 22 -5 -24 17 11 -3 14 -1 5 0 3 24 -10 33 16 -2 38 12 30 32 -3 13 50 30 28 10 -12 -23 29 13 -48 -6
6 5 5 5 4 6 3 7 11 12 15 9 -5 37 16 -13 9 28 -2 8 -3 6 3 26 23 24 35 -8 -1 60 45 37 25 46 25 17 9 14 13 -2 7 3 -27 29
8 7 6 7 6 6 6 8 12 12 14 34 13 -3 9 29 10 -43 8 16 12 -10 -5 -7 -4 21 19 27 21 -8 -2 30 -12 -20 6 10 21 5 2 25 15 6 -5 1
10 9 8 8 6 8 6 8 8 8 -10 -6 19 35 10 -9 28 7 14 5 24 -9 22 -7 5 -8 20 13 13 22 18 42 82 12 -11 23 44 18 -14 8 6 11 25 22
8 9 8 6 8 9 6 7 10 8 5 18 14 -18 27 20 24 20 20 -4 6 48 16 -11 -29 6 -7 -8 1 21 20 -7 -14 38 -12 -8 6 14 8 1 10 -5 11 11
11 9 8 9 8 7 4 11 10 3 1 4 34 9 36 28 25 5 10 18 -2 -7 -7 23 13 0 29 -12 7 -8 17 -6 10 13 15 13 34 -2 -3 -3 -1 -6 -1 14
8 10 10 9 11 15 10 10 9 11 4 9 13 -22 -23 49 -23 16 11 5 16 16 19 -23 2 6 4 10 5 8 13 14 9 7 6 20 -10 14 21 22 18 18 27 -6
9 8 11 11 13 13 10 10 6 7 2 11 22 8 30 13 14 33 21 4 18 19 18 34 21 21 22 14 3 17 -8 -9 -11 2 11 -15 -3 -1 23 48 42 30 21 22
8 11 13 15 8 14 9 11 8 9 13 12 15 -11 14 18 8 21 12 24 39 18 16 -5 14 1 8 24 33 42 41 21 7 0 2 2 28 58 38 -14 19 13 18 28
11 12 13 11 13 17 9 10 9 3 2 15 -3 6 22 8 9 16 17 -7 20 26 -6 -1 -2 13 -10 10 8 10 15 38 -2 4 -3 25 -17 17 16 28 -8 -2 -17 11
13 14 15 11 17 16 13 6 12 6 5 0 26 -13 5 52 13 27 -6 47 32 -5 -4 3 2 16 5 10 -9 15 6 9 37 44 18 21 30 37 7 16 9 2 22 22
10 7 12 12 16 24 28 25 18 14 4 14 27 23 2 42 20 -23 -2 43 12 5 3 4 20 -4 27 5 -2 36 12 6 -12 -12 -24 -18 -27 -28 -26 2 2 16 -3 2
23 12 22 31 21 33 41 34 8 4 8 13 -10 50 16 25 1 8 -1 -9 34 9 21 17 -9 -1 25 3 15 -0 11 13 -1 -10 12 19 27 19 17 22 18 11 22 13
14 23 18 13 31 18 10 21 20 8 20 -0 46 -11 10 12 33 34 24 7 11 15 19 6 -1 6 5 5 4 7 12 9 -0 19 31 11 -2 15 6 8 10 7 -4 13
21 47 40 56 60 47 27 11 1 29 -57 44 2 8 3 17 5 16 30 -1 0 18 -1 -2 8 9 8 10 9 3 8 14 13 11 6 6 10 9 47 6 12 -15 29 0
36 7 -4 24 24 -21 -6 20 19 10 54 10 12 31 34 4 -1 2 5 4 5 2 1 9 12 12 10 7 -3 2 10 4 13 1 6 12 13 11 14 16 29 27 18 13
11 19 -3 14 7 12 4 7 -6 3 -0 8 13 7 10 9 5 5 8 6 6 10 5 6 5 3 23 6 5 15 1 0 6 0 11 22 -2 8 17 15 16 6 7 13
12 3 5 2 6 5 14 19 14 8 12 -1 2 17 10 6 9 7 6 10 10 7 4 5 6 9 2 12 8 15 25 9 24 -4 33 5 13 18 21 14 13 12 10 11
6 9 7 2 3 6 7 7 10 4 -4 -6 5 3 21 20 11 9 14 16 11 5 9 8 11 10 -6 4 25 30 21 9 13 25 10 11 14 15 13 11 9 9 8 11
11 6 6 9 -4 2 2 17 9 16 14 9 4 18 -3 10 17 15 13 11 24 8 30 31 8 -1 -4 3 1 -14 9 17 20 9 11 14 14 16 17 12 9 14 16 15
16 10 10 9 11 8 8 8 12 15 20 40 24 14 10 2 27 19 -2 7 12 23 34 -2 24 22 32 50 29 18 17 7 6 6 13 12 10 11 11 12 11 10 11 12
4 9 17 15 15 10 5 15 14 9 9 17 24 34 13 10 6 -6 29 -2 17 4 20 19 19 15 15 21 12 7 5 14 12 11 10 9 14 14 14 15 15 14 12 11
11 13 11 9 10 14 3 13 13 7 14 15 11 11 16 8 4 12 19 18 6 18 15 25 14 13 16 12 10 14 6 19 9 10 11 12 12 11 12 13 13 13 14 14
5 1 14 -5 15 11 7 2 2 2 32 10 35 35 19 32 16 13 11 23 12 2 7 10 13 11 10 7 2 27 21 16 9 10 12 11 12 15 16 15 15 16 16 15
-7 15 19 8 6 4 7 15 7 7 17 18 7 3 23 7 9 12 11 10 11 15 12 6 14 8 11 22 23 16 12 9 10 12 11 11 12 10 9 8 8 8 10 12
10 11 7 14 5 16 24 21 18 14 8 29 -3 8 11 10 15 9 13 5 9 8 13 13 12 14 19 16 15 13 12 11 12 11 10 10 9 7 10 9 8 8 10 10
9 8 8 18 1 10 13 15 11 16 9 2 2 13 11 15 12 7 13 7 4 10 4 14 21 19 18 17 12 9 8 12 12 10 10 11 12 4 9 10 10 11 12 14
Height
2974 2976 2977 2978 2981 2982 2984 2986 2989 2992 2998 3002 2999 2999 3002 3007 3008 3011 3015 3017 3016 3019 3019 3018 3019 3019 3028 3022 3023 3019 3022 3030 3029 3028 3031 3032 3032 3035 3043 3046 3048 3050 3048 3046
2969 2971 2972 2974 2976 2978 2979 2980 2983 2986 2990 2990 2993 2993 2995 3000 3003 3005 3011 3012 3013 3014 3015 3016 3015 3011 3014 3013 3014 3011 3019 3019 3023 3026 3028 3025 3024 3027 3032 3038 3042 3039 3045 3039
2963 2965 2967 2969 2971 2973 2975 2976 2977 2978 2980 2983 2986 2989 2988 2993 2997 3000 3003 3005 3007 3008 3010 3011 3010 3005 3007 3008 3004 3005 3006 3011 3009 3011 3013 3016 3019 3024 3028 3028 3031 3031 3032 3035
2956 2958 2960 2963 2964 2966 2969 2969 2970 2973 2974 2977 2978 2980 2985 2985 2987 2991 2997 2998 2998 3000 3005 3005 3005 3003 3004 3003 2999 3001 3004 3003 3002 3009 3009 3011 3014 3018 3022 3024 3027 3029 3030 3030
2950 2952 2954 2956 2958 2959 2961 2963 2964 2967 2968 2971 2971 2974 2974 2977 2978 2984 2987 2990 2993 2997 2999 3001 3000 2999 3001 3001 3002 3002 3002 3001 3000 3001 3005 3007 3012 3017 3020 3021 3021 3024 3027 3024
2944 2946 2947 2949 2951 2952 2953 2956 2958 2960 2959 2964 2965 2962 2964 2965 2972 2976 2980 2984 2990 2992 2993 2996 2996 2996 2996 3000 3000 3001 3003 3003 3002 3001 2998 2997 3007 3014 3016 3016 3017 3019 3019 3021
2937 2938 2940 2941 2943 2945 2947 2949 2953 2953 2949 2954 2954 2957 2959 2960 2965 2967 2972 2979 2980 2983 2991 2991 2994 2994 2994 2994 2997 2998 2998 3000 3000 3000 3001 3005 3003 3002 3004 3004 3006 3009 3012 3016
2930 2931 2932 2933 2935 2938 2939 2943 2945 2946 2943 2945 2944 2947 2949 2951 2957 2958 2965 2969 2973 2981 2983 2986 2989 2991 2990 2989 2991 2994 2996 2999 3002 3004 3003 3000 3000 2999 3002 3001 3000 3001 3003 3007
2922 2922 2923 2925 2927 2930 2932 2934 2938 2940 2937 2929 2940 2941 2942 2943 2947 2954 2955 2961 2965 2970 2976 2980 2983 2986 2987 2989 2987 2989 2992 2994 3000 2999 3000 2997 2990 2994 2996 2995 2993 2994 2997 2999
2913 2914 2914 2915 2917 2921 2923 2924 2931 2932 2927 2924 2933 2931 2933 2940 2942 2944 2949 2956 2956 2964 2967 2974 2980 2984 2988 2987 2986 2987 2987 2989 2991 2991 2994 2991 2989 2992 2994 2995 2993 2992 2993 2992
2904 2903 2903 2904 2907 2910 2913 2914 2921 2923 2919 2917 2925 2923 2925 2928 2933 2938 2944 2947 2950 2958 2963 2970 2975 2980 2980 2981 2980 2982 2984 2987 2986 2988 2990 2989 2986 2988 2991 2989 2986 2985 2985 2987
2896 2894 2893 2893 2894 2897 2901 2903 2911 2917 2915 2911 2917 2915 2914 2922 2930 2936 2939 2942 2946 2950 2957 2966 2972 2974 2974 2976 2977 2979 2980 2982 2984 2984 2982 2983 2982 2983 2983 2982 2982 2983 2983 2983
2889 2885 2880 2881 2882 2885 2888 2895 2906 2909 2910 2909 2911 2909 2915 2918 2922 2928 2933 2937 2944 2948 2954 2962 2966 2968 2970 2972 2973 2972 2973 2975 2977 2978 2975 2976 2976 2976 2975 2975 2976 2975 2975 2975
2882 2877 2875 2875 2878 2880 2884 2892 2899 2903 2908 2910 2905 2908 2914 2919 2910 2923 2931 2937 2942 2949 2956 2957 2959 2962 2964 2967 2969 2966 2968 2968 2970 2969 2969 2970 2971 2972 2969 2968 2968 2969 2969 2970
2878 2875 2875 2876 2876 2879 2885 2892 2897 2900 2905 2904 2906 2912 2917 2919 2922 2929 2934 2938 2942 2946 2949 2952 2955 2957 2961 2964 2965 2959 2962 2962 2963 2964 2965 2965 2964 2964 2961 2963 2963 2962 2963 2965
2877 2879 2877 2878 2880 2883 2885 2888 2892 2898 2900 2905 2906 2911 2915 2920 2925 2929 2931 2936 2939 2942 2944 2947 2950 2953 2956 2957 2953 2952 2952 2954 2958 2959 2958 2957 2957 2958 2957 2956 2955 2956 2956 2959
2882 2882 2884 2884 2887 2889 2893 2896 2898 2900 2902 2906 2909 2913 2918 2921 2924 2927 2930 2933 2936 2939 2941 2942 2945 2947 2950 2947 2945 2945 2948 2951 2952 2952 2952 2951 2951 2951 2952 2949 2949 2949 2951 2953
2885 2887 2889 2891 2893 2896 2897 2898 2900 2903 2905 2908 2910 2913 2917 2919 2921 2923 2925 2928 2931 2934 2936 2938 2940 2943 2941 2940 2940 2942 2942 2944 2946 2946 2945 2946 2944 2945 2946 2946 2946 2945 2946 2947
2890 2892 2893 2895 2897 2899 2900 2901 2903 2904 2908 2907 2908 2910 2914 2916 2917 2920 2923 2926 2929 2933 2932 2933 2938 2936 2931 2933 2935 2935 2937 2938 2938 2938 2940 2940 2940 2940 2941 2941 2940 2941 2941 2940
2893 2896 2897 2899 2900 2901 2902 2903 2904 2905 2906 2907 2908 2910 2912 2915 2916 2918 2924 2925 2928 2928 2928 2929 2927 2923 2926 2928 2930 2931 2932 2932 2933 2934 2935 2936 2936 2936 2937 2937 2936 2937 2937 2937
2894 2896 2899 2900 2902 2904 2904 2905 2906 2906 2905 2904 2904 2907 2908 2912 2914 2918 2921 2925 2925 2923 2922 2922 2918 2915 2917 2920 2924 2925 2927 2929 2929 2930 2931 2932 2932 2933 2933 2933 2933 2934 2933 2933
2895 2897 2900 2901 2903 2904 2905 2903 2903 2901 2901 2899 2899 2902 2905 2910 2912 2915 2919 2919 2918 2915 2914 2915 2914 2914 2913 2914 2917 2921 2923 2924 2925 2927 2927 2929 2929 2929 2929 2930 2930 2929 2929 2929
2897 2899 2900 2902 2902 2901 2900 2898 2898 2897 2895 2894 2895 2899 2902 2906 2909 2912 2913 2913 2912 2910 2904 2907 2910 2910 2912 2913 2915 2917 2919 2921 2922 2924 2925 2925 2926 2926 2926 2926 2926 2925 2926 2926
2897 2898 2898 2898 2896 2895 2894 2894 2891 2893 2890 2893 2893 2896 2897 2899 2904 2905 2906 2908 2908 2907 2907 2908 2909 2910 2911 2911 2912 2914 2916 2918 2919 2921 2922 2923 2923 2923 2923 2923 2923 2923 2923 2923
2896 2895 2894 2894 2893 2892 2892 2892 2893 2893 2892 2894 2895 2897 2898 2899 2903 2904 2905 2905 2905 2905 2905 2904 2906 2907 2908 2908 2909 2911 2913 2915 2917 2919 2920 2921 2921 2922 2922 2922 2922 2922 2922 2922
2896 2894 2893 2892 2892 2891 2890 2891 2892 2893 2894 2894 2897 2899 2900 2900 2900 2901 2901 2902 2902 2902 2902 2903 2903 2904 2905 2906 2907 2910 2912 2914 2915 2917 2918 2919 2920 2921 2921 2921 2921 2921 2921 2921
2894 2893 2892 2891 2890 2890 2890 2891 2892 2893 2895 2896 2898 2898 2898 2899 2899 2900 2900 2900 2901 2901 2901 2901 2901 2901 2903 2905 2907 2909 2911 2912 2913 2915 2916 2917 2918 2919 2920 2920 2920 2920 2920 2919